Weather in Mirnyy

Russia / Voronezh Oblast     50°41′37″N   41°06′29″E
temp.,
°C
wind,
m/s
gust,
m/s
humid.,
%
clouds,
%
prec.,
mm/h
press.,
hPa
HPBL,
m
22 may, sun
sun2200:00+9se3891100 0.1 1004331
03:00+8ese5897100 2.1 1000289
06:00+9e3598100 0.6 997222
09:00+9e5697100 3.4 995257
12:00+9e3698100 1.7 996316
15:00+14w498480 2.2 994762
18:00+13wnw59839 1.6 995898
21:00+8ese459773 2.5 996162
23 may, mon
mon2300:00+8ne5697100 0.6 996417
03:00+7nne81194100 2.7 999849
06:00+7n6109396 0.4 1001607
09:00+9n687319 0.4 1004939
12:00+11nnw665246 0.1 10051759
15:00+12nnw775199 0.1 10061880
18:00+10nnw576057 0.0 10071250
21:00+5nnw22745 0.0 100810
24 may, tue
tue2400:00+4w33805 0.0 100932
03:00+3w36835 0.0 1010100
06:00+5w49785 0.0 1010264
09:00+11w67615 0.0 1009894
12:00+14w674410 0.0 10092142
15:00+15w6844100 0.0 10082388
18:00+13wnw5864100 0.1 1010939
21:00+8wnw478150 0.1 1012103
25 may, wed
wed2500:00+7w367950 0.0 1012113
03:00+6nw47905 0.0 1013165
06:00+6nnw37825 0.0 1015252
09:00+10nnw57605 0.0 10161011
12:00+13nw6954100 0.0 10151803
15:00+12nnw565999 0.0 10161071
18:00+11n346773 0.0 1017715
21:00+7nne1182100 0.0 101811
26 may, thu
thu2600:00+8wsw11778 0.0 101814
03:00+8sw3577100 0.0 1018112
06:00+9ssw2782100 0.0 1017240
09:00+16wsw576967 0.1 1015712
12:00+20wsw7104835 0.5 10142254
15:00+18wsw8125971 0.5 10121037
18:00+17wsw91365100 0.4 10101043
21:00+10sw81593100 2.6 1010899